Time,TemperatureF,DewpointF,PressureIn,WindDirection,WindDirectionDegrees,WindSpeedMPH,WindSpeedGustMPH,Humidity,HourlyPrecipIn,Conditions,Clouds,dailyrainin,SolarRadiationWatts/m^2,SoftwareType,DateUTC
2013-06-18 00:00:00,56.0,51.0,30.06,SE,129,4.0,-999.0,83,-99.99,,,-99.99,0.130000,,2013-06-18 06:00:00,
2013-06-18 00:53:00,56.0,51.0,30.06,SE,129,4.0,-999.0,83,-99.99,,,-99.99,0.130000,,2013-06-18 06:53:00,
2013-06-18 02:00:00,53.0,50.0,30.05,SSE,147,4.0,-999.0,89,-99.99,,,-99.99,0.080000,,2013-06-18 08:00:00,
2013-06-18 02:52:00,53.0,50.0,30.05,SSE,147,4.0,-999.0,89,-99.99,,,-99.99,0.080000,,2013-06-18 08:52:00,
2013-06-18 03:00:00,54.0,52.0,30.05,SSE,160,2.0,-999.0,91,-99.99,,,-99.99,0.060000,,2013-06-18 09:00:00,
2013-06-18 03:53:00,54.0,52.0,30.05,SSE,160,2.0,-999.0,91,-99.99,,,-99.99,0.060000,,2013-06-18 09:53:00,
2013-06-18 04:00:00,52.0,50.0,30.05,SSE,155,1.0,-999.0,96,-99.99,,,-99.99,0.070000,,2013-06-18 10:00:00,
2013-06-18 04:53:00,52.0,50.0,30.05,SSE,155,1.0,-999.0,96,-99.99,,,-99.99,0.070000,,2013-06-18 10:53:00,
2013-06-18 05:00:00,52.0,50.0,30.05,SE,144,1.0,-999.0,93,-99.99,,,-99.99,0.470000,,2013-06-18 11:00:00,
2013-06-18 05:52:00,52.0,50.0,30.05,SE,144,1.0,-999.0,93,-99.99,,,-99.99,0.470000,,2013-06-18 11:52:00,
2013-06-18 06:00:00,52.0,51.0,30.03,WSW,243,1.0,-999.0,95,-99.99,,,-99.99,20.440001,,2013-06-18 12:00:00,
2013-06-18 06:52:00,52.0,51.0,30.03,WSW,243,1.0,-999.0,95,-99.99,,,-99.99,20.440001,,2013-06-18 12:52:00,
2013-06-18 07:00:00,56.0,53.0,30.02,NE,47,2.0,-999.0,90,-99.99,,,-99.99,139.000000,,2013-06-18 13:00:00,
2013-06-18 07:53:00,56.0,53.0,30.02,NE,47,2.0,-999.0,90,-99.99,,,-99.99,139.000000,,2013-06-18 13:53:00,
2013-06-18 08:00:00,61.0,53.0,30.02,ESE,111,6.0,-999.0,77,-99.99,,,-99.99,261.799988,,2013-06-18 14:00:00,
2013-06-18 08:53:00,61.0,53.0,30.02,ESE,111,6.0,-999.0,77,-99.99,,,-99.99,261.799988,,2013-06-18 14:53:00,
2013-06-18 09:00:00,65.0,55.0,30.00,SE,125,9.0,-999.0,68,-99.99,,,-99.99,379.600006,,2013-06-18 15:00:00,
2013-06-18 09:53:00,65.0,55.0,30.00,SE,125,9.0,-999.0,68,-99.99,,,-99.99,379.600006,,2013-06-18 15:53:00,
2013-06-18 10:00:00,70.0,57.0,29.98,SE,125,11.0,-999.0,63,-99.99,,,-99.99,512.900024,,2013-06-18 16:00:00,
2013-06-18 10:53:00,70.0,57.0,29.98,SE,125,11.0,-999.0,63,-99.99,,,-99.99,512.900024,,2013-06-18 16:53:00,
2013-06-18 11:00:00,73.0,57.0,29.97,ESE,119,10.0,-999.0,58,-99.99,,,-99.99,623.299988,,2013-06-18 17:00:00,
2013-06-18 11:53:00,73.0,57.0,29.97,ESE,119,10.0,-999.0,58,-99.99,,,-99.99,623.299988,,2013-06-18 17:53:00,
2013-06-18 12:00:00,75.0,56.0,29.94,ESE,103,12.0,-999.0,52,-99.99,,,-99.99,677.200012,,2013-06-18 18:00:00,
2013-06-18 12:53:00,75.0,56.0,29.94,ESE,103,12.0,-999.0,52,-99.99,,,-99.99,677.200012,,2013-06-18 18:53:00,
2013-06-18 13:00:00,77.0,56.0,29.92,ESE,103,13.0,-999.0,48,-99.99,,,-99.99,548.700012,,2013-06-18 19:00:00,
2013-06-18 13:53:00,77.0,56.0,29.92,ESE,103,13.0,-999.0,48,-99.99,,,-99.99,548.700012,,2013-06-18 19:53:00,
2013-06-18 14:00:00,79.0,53.0,29.91,ESE,117,14.0,-999.0,41,-99.99,,,-99.99,717.200012,,2013-06-18 20:00:00,
2013-06-18 14:52:00,79.0,53.0,29.91,ESE,117,14.0,-999.0,41,-99.99,,,-99.99,717.200012,,2013-06-18 20:52:00,
2013-06-18 15:00:00,81.0,53.0,29.89,ESE,117,15.0,-999.0,38,-99.99,,,-99.99,676.500000,,2013-06-18 21:00:00,
2013-06-18 15:52:00,81.0,53.0,29.89,ESE,117,15.0,-999.0,38,-99.99,,,-99.99,676.500000,,2013-06-18 21:52:00,
2013-06-18 16:00:00,81.0,52.0,29.87,ESE,119,15.0,-999.0,37,-99.99,,,-99.99,604.099976,,2013-06-18 22:00:00,
2013-06-18 16:53:00,81.0,52.0,29.87,ESE,119,15.0,-999.0,37,-99.99,,,-99.99,604.099976,,2013-06-18 22:53:00,
2013-06-18 17:00:00,81.0,52.0,29.86,SE,125,15.0,-999.0,36,-99.99,,,-99.99,509.399994,,2013-06-18 23:00:00,
2013-06-18 17:53:00,81.0,52.0,29.86,SE,125,15.0,-999.0,36,-99.99,,,-99.99,509.399994,,2013-06-18 23:53:00,
2013-06-18 18:00:00,79.0,51.0,29.84,ESE,121,16.0,-999.0,37,-99.99,,,-99.99,387.899994,,2013-06-19 00:00:00,
2013-06-18 18:53:00,79.0,51.0,29.84,ESE,121,16.0,-999.0,37,-99.99,,,-99.99,387.899994,,2013-06-19 00:53:00,
2013-06-18 19:00:00,78.0,53.0,29.84,ESE,120,16.0,-999.0,42,-99.99,,,-99.99,255.899994,,2013-06-19 01:00:00,
2013-06-18 19:53:00,78.0,53.0,29.84,ESE,120,16.0,-999.0,42,-99.99,,,-99.99,255.899994,,2013-06-19 01:53:00,
2013-06-18 20:00:00,74.0,55.0,29.82,ESE,121,13.0,-999.0,52,-99.99,,,-99.99,117.800003,,2013-06-19 02:00:00,
2013-06-18 20:52:00,74.0,55.0,29.82,ESE,121,13.0,-999.0,52,-99.99,,,-99.99,117.800003,,2013-06-19 02:52:00,
2013-06-18 21:00:00,69.0,57.0,29.83,SE,125,9.0,-999.0,64,-99.99,,,-99.99,25.350000,,2013-06-19 03:00:00,
2013-06-18 21:52:00,69.0,57.0,29.83,SE,125,9.0,-999.0,64,-99.99,,,-99.99,25.350000,,2013-06-19 03:52:00,
2013-06-18 22:00:00,69.0,57.0,29.83,ESE,116,7.0,-999.0,65,-99.99,,,-99.99,0.410000,,2013-06-19 04:00:00,
2013-06-18 22:53:00,69.0,57.0,29.83,ESE,116,7.0,-999.0,65,-99.99,,,-99.99,0.410000,,2013-06-19 04:53:00,
2013-06-18 23:00:00,68.0,57.0,29.82,ESE,116,10.0,-999.0,67,-99.99,,,-99.99,0.130000,,2013-06-19 05:00:00,
2013-06-18 23:52:00,68.0,57.0,29.82,ESE,116,10.0,-999.0,67,-99.99,,,-99.99,0.130000,,2013-06-19 05:52:00,